Weather History for Mount Carmel, IL

Change the Weather History Date:

Sunday, January 13, 2013

  Actual Average (KLWV) Record (KLWV)
Temperature  
Mean Temperature 34 °F 31 °F  
Max Temperature 42 °F 39 °F 62 °F (2005)
Min Temperature 26 °F 23 °F -4 °F (1997)
Degree Days  
Heating Degree Days 31 34  
Month to date heating degree days 442  
Since 1 July heating degree days 2241  
Cooling Degree Days 0 0  
Month to date cooling degree days 0  
Year to date cooling degree days 0  
Moisture  
Dew Point 32 °F    
Average Humidity 94    
Maximum Humidity 100    
Minimum Humidity 80    
Precipitation  
Precipitation 0.05 in 0.08 in 1.04 in (2005)
Month to date precipitation 1.18  
Year to date precipitation 1.18  
Sea Level Pressure  
Sea Level Pressure 30.05 in    
Wind  
Wind Speed 11 mph (NNW)    
Max Wind Speed 20 mph    
Max Gust Speed 28 mph    
Visibility 8 miles    
Events Rain , Snow , Thunderstorm    
T = Trace of Precipitation, MM = Missing Value Source: NWS Daily Summary

Daily Weather History Graph

Daily Weather History Graph

Search for Another Location

Airport:

Trip Planner

Search our weather history database for the weather conditions in past years. The results will help you decide how hot, cold, wet, or windy it might be!

Date:

Astronomy

Jan. 13, 2013 Rise Set
Actual Time 7:07 AM CST 4:52 PM CST
Civil Twilight 6:38 AM CST 5:21 PM CST
Nautical Twilight 6:05 AM CST 5:53 PM CST
Astronomical Twilight 5:33 AM CST 6:25 PM CST
Moon 8:08 AM CST (1/13) 7:27 PM CST (1/13)
Length of Visible Light 10h 42m
Length of Day
9h 44m
Waxing Crescent, 5% of the Moon is Illuminated
Jan 13
Waxing Crescent
Jan 18
First Quarter
Jan 26
Full
Feb 3
Last Quarter
Feb 10
New

Hourly Weather History & Observations

Time (CST) Temp. Windchill Dew Point Humidity Pressure Visibility Wind Dir Wind Speed Gust Speed Precip Events Conditions
12:15 AM 42.8 °F 37.0 °F 42.8 °F 100% 29.79 in 10.0 mi NW 10.4 mph - N/A Rain Rain
12:35 AM 42.8 °F 37.0 °F 42.8 °F 100% 29.78 in 7.0 mi NNW 10.4 mph - N/A Rain Heavy Rain
12:55 AM 42.8 °F 35.8 °F 41.0 °F 93% 29.81 in 10.0 mi NW 13.8 mph - N/A Rain Light Rain
1:15 AM 41.0 °F 31.9 °F 41.0 °F 100% 29.85 in 10.0 mi WNW 19.6 mph - N/A Rain , Thunderstorm Rain
1:35 AM 39.2 °F 30.8 °F 37.4 °F 93% 29.86 in 5.0 mi NW 15.0 mph 27.6 mph N/A Rain Heavy Rain
1:55 AM 39.2 °F 30.2 °F 37.4 °F 93% 29.90 in 7.0 mi NNW 17.3 mph - N/A Rain Rain
2:15 AM 37.4 °F 31.4 °F 37.4 °F 100% 29.87 in 7.0 mi North 8.1 mph - N/A Rain Heavy Rain
2:55 AM 37.4 °F 29.8 °F 37.4 °F 100% 29.90 in 7.0 mi North 11.5 mph - N/A Rain Rain
3:15 AM 37.4 °F 29.8 °F 35.6 °F 93% 29.87 in 5.0 mi NNE 11.5 mph - N/A Rain Rain
3:35 AM 35.6 °F 27.1 °F 35.6 °F 100% 29.90 in 7.0 mi NNW 12.7 mph 17.3 mph N/A Rain Rain
3:55 AM 37.4 °F 30.8 °F 35.6 °F 93% 29.89 in 2.5 mi NNW 9.2 mph - N/A Rain Rain
4:15 AM 37.4 °F 30.8 °F 35.6 °F 93% 29.88 in 3.0 mi NNE 9.2 mph - N/A Rain Heavy Rain
4:35 AM 37.4 °F 29.3 °F 35.6 °F 93% 29.89 in 7.0 mi North 12.7 mph - N/A Rain Light Rain
4:55 AM 37.4 °F 30.8 °F 35.6 °F 93% 29.91 in 10.0 mi NNW 9.2 mph 17.3 mph N/A Rain Rain
5:15 AM 37.4 °F 32.1 °F 35.6 °F 93% 29.92 in 10.0 mi North 6.9 mph - 0.01 in   Overcast
5:35 AM 37.4 °F 30.8 °F 35.6 °F 93% 29.91 in 10.0 mi North 9.2 mph - 0.01 in Rain Light Rain
5:55 AM 35.6 °F 28.6 °F 35.6 °F 100% 29.89 in 10.0 mi North 9.2 mph - 0.01 in   Overcast
6:15 AM 35.6 °F 29.2 °F 35.6 °F 100% 29.93 in 10.0 mi North 8.1 mph - N/A   Overcast
6:35 AM 35.6 °F 26.6 °F 35.6 °F 100% 29.96 in 10.0 mi NW 13.8 mph - N/A   Overcast
6:55 AM 37.4 °F 29.3 °F 35.6 °F 93% 29.95 in 10.0 mi NNW 12.7 mph - N/A   Light Drizzle
7:15 AM 35.6 °F 28.0 °F 35.6 °F 100% 29.97 in 2.0 mi NNW 10.4 mph - N/A Rain Light Rain
7:35 AM 35.6 °F 28.6 °F 35.6 °F 100% 29.97 in 3.0 mi NNW 9.2 mph - 0.01 in   Drizzle
7:55 AM 35.6 °F 28.6 °F 35.6 °F 100% 29.98 in 3.0 mi NW 9.2 mph - 0.01 in   Light Drizzle
1:15 PM 32.0 °F 23.6 °F 32.0 °F 100% 30.00 in 2.0 mi NW 10.4 mph - N/A Snow Light Snow
1:35 PM 32.0 °F 24.2 °F 32.0 °F 100% 30.00 in 2.0 mi NNW 9.2 mph - N/A   Overcast
1:55 PM 32.0 °F 23.6 °F 32.0 °F 100% 29.99 in 4.0 mi NNW 10.4 mph - N/A Rain Light Rain
2:15 PM 32.0 °F 25.6 °F 32.0 °F 100% 30.02 in 10.0 mi NNW 6.9 mph - N/A   Overcast
2:35 PM 32.0 °F 24.2 °F 32.0 °F 100% 30.02 in 10.0 mi NNW 9.2 mph - N/A   Overcast
2:55 PM 32.0 °F 24.2 °F 32.0 °F 100% 30.04 in 10.0 mi NNW 9.2 mph 16.1 mph N/A   Overcast
3:15 PM 32.0 °F 23.6 °F 32.0 °F 100% 30.06 in 10.0 mi NW 10.4 mph - N/A   Overcast
3:35 PM 32.0 °F 24.2 °F 32.0 °F 100% 30.09 in 10.0 mi NW 9.2 mph - 0.01 in   Overcast
3:55 PM 32.0 °F 24.2 °F 32.0 °F 100% 30.09 in 10.0 mi NW 9.2 mph - 0.01 in   Overcast
4:15 PM 32.0 °F 24.2 °F 32.0 °F 100% 30.10 in 10.0 mi NW 9.2 mph - N/A   Overcast
4:35 PM 32.0 °F 22.5 °F 32.0 °F 100% 30.11 in 10.0 mi NW 12.7 mph 18.4 mph N/A   Overcast
4:55 PM 30.2 °F 19.8 °F 30.2 °F 100% 30.13 in 10.0 mi WNW 13.8 mph 19.6 mph N/A   Overcast
5:15 PM 30.2 °F 20.8 °F 30.2 °F 100% 30.15 in 10.0 mi NW 11.5 mph 23.0 mph N/A   Overcast
5:35 PM 30.2 °F 18.9 °F 28.4 °F 93% 30.17 in 10.0 mi WNW 16.1 mph - N/A   Overcast
5:55 PM 30.2 °F 20.2 °F 28.4 °F 93% 30.17 in 10.0 mi NW 12.7 mph - 0.01 in   Overcast
6:15 PM 30.2 °F 21.3 °F 28.4 °F 93% 30.19 in 10.0 mi NW 10.4 mph - N/A   Overcast
6:35 PM 30.2 °F 20.8 °F 28.4 °F 93% 30.19 in 10.0 mi NW 11.5 mph - N/A   Overcast
6:55 PM 30.2 °F 20.8 °F 26.6 °F 86% 30.19 in 10.0 mi NW 11.5 mph - N/A   Overcast
7:15 PM 28.4 °F 19.1 °F 26.6 °F 93% 30.20 in 10.0 mi NW 10.4 mph - N/A   Mostly Cloudy
7:35 PM 28.4 °F 18.5 °F 24.8 °F 86% 30.21 in 10.0 mi NW 11.5 mph 18.4 mph N/A   Scattered Clouds
7:55 PM 28.4 °F 19.1 °F 24.8 °F 86% 30.21 in 10.0 mi NW 10.4 mph - N/A   Clear
8:15 PM 28.4 °F 19.7 °F 24.8 °F 86% 30.22 in 10.0 mi NW 9.2 mph - N/A   Scattered Clouds
8:35 PM 28.4 °F 19.7 °F 24.8 °F 86% 30.23 in 10.0 mi NW 9.2 mph - N/A   Mostly Cloudy
8:55 PM 28.4 °F 19.1 °F 24.8 °F 86% 30.24 in 10.0 mi NW 10.4 mph - N/A   Mostly Cloudy
9:15 PM 28.4 °F 19.1 °F 24.8 °F 86% 30.25 in 10.0 mi NW 10.4 mph - N/A   Overcast
9:35 PM 28.4 °F 20.4 °F 24.8 °F 86% 30.26 in 10.0 mi NNW 8.1 mph - N/A   Overcast
9:55 PM 28.4 °F 18.5 °F 23.0 °F 80% 30.27 in 10.0 mi NNW 11.5 mph - N/A   Mostly Cloudy
10:15 PM 26.6 °F 16.2 °F 23.0 °F 86% 30.28 in 10.0 mi NW 11.5 mph - N/A   Scattered Clouds
10:35 PM 26.6 °F 18.2 °F 23.0 °F 86% 30.29 in 10.0 mi NNW 8.1 mph - N/A   Scattered Clouds
10:55 PM 26.6 °F 16.2 °F 23.0 °F 86% 30.30 in 10.0 mi NNW 11.5 mph - 0.01 in   Scattered Clouds
11:35 PM 26.6 °F 17.5 °F 21.2 °F 80% 30.32 in 10.0 mi NNW 9.2 mph - N/A   Mostly Cloudy
11:55 PM 26.6 °F 18.2 °F 21.2 °F 80% 30.33 in 10.0 mi NW 8.1 mph - N/A   Scattered Clouds